Location: Gladeville
(36.1126°N, 86.4164°W)
Time: 00:40:51
(UTC+00:00)

Daily predictions for brighter satellites

Satellite Brightness Start Highest point End
(mag) Time Altitude Azimuth Time Altitude Azimuth Time Altitude Azimuth
USA 234 4.2 00:03:36 10° ENE 00:08:54 26° SE 00:14:11 10° S
COSMO-SKYMED 1 3.3 00:05:16 10° N 00:09:34 59° WNW 00:13:49 10° SSW
CZ-4 R/B 4.4 00:06:47 10° SSE 00:10:53 79° ENE 00:15:01 10° N
ISS -3.7 00:12:01 10° SW 00:15:21 63° SE 00:18:40 10° NE
Sich 1 Rocket 4.5 00:12:16 10° SSE 00:16:03 28° E 00:19:52 10° NNE
H-2A R/B 2.7 00:15:55 10° SE 00:20:16 32° ENE 00:24:41 10° N
Cosmos 158 Rocket 3.9 00:16:45 10° NNW 00:22:01 76° ENE 00:27:05 10° SSE
Iridium 4 Rocket 3.4 00:19:03 10° S 00:23:46 75° E 00:28:59 10° N
ARGOS 4.0 00:19:39 10° SE 00:24:08 28° ENE 00:28:39 10° N
Cosmos 1437 3.3 00:26:15 10° NNE 00:28:59 32° ENE 00:31:42 10° SE
SJ 16-02 3.5 00:25:29 10° SW 00:29:21 30° WNW 00:33:14 10° N
DMSP B5D1-3 4.4 00:24:40 10° NNE 00:29:46 73° ESE 00:34:51 10° S
Cosmos 1939 Rocket 4.2 00:28:47 10° S 00:32:43 46° W 00:36:42 10° NNW
CZ-2C R/B 3.7 00:28:16 10° NE 00:32:43 24° E 00:37:10 10° SSE
Milstar 3 Cent rocket 3.8 00:28:02 10° SW 00:33:39 22° SSE 00:37:15 12° ESE
Helios 1A Rocket 4.3 00:29:52 10° S 00:33:45 43° W 00:37:41 10° NNW
SL-16 R/B 4.1 00:29:58 10° NW 00:34:59 33° WSW 00:39:58 10° SSW
NOSS 2-2 (E) 3.2 00:32:00 10° SW 00:35:29 76° WNW 00:39:08 10° NNE
Okean 2 Rocket 3.9 00:31:58 10° SSE 00:35:49 29° E 00:39:41 10° NNE
CZ-2D R/B 4.3 00:35:30 10° S 00:39:15 49° W 00:43:03 10° NNW
Okean-O 3.4 00:35:23 10° S 00:39:43 56° W 00:44:05 10° NNW
Cosmos 2263 Rocket 2.9 00:34:18 10° SW 00:39:45 59° WNW 00:45:16 10° NNE
Cosmos 1900 4.5 00:34:34 10° NNW 00:39:45 84° WSW 00:44:53 10° SSE
ATLAS 2AS CENTAUR R/B 4.3 00:36:10 10° SE 00:39:55 14° ESE 00:40:32 14° E
HJ-1C 3.5 00:38:14 10° SSE 00:41:25 49° ENE 00:44:37 10° N
SJ-11-01 4.3 00:37:12 10° SSE 00:41:50 58° ENE 00:46:28 10° N
DELTA 2 R/B (1) 3.6 00:37:05 10° WNW 00:42:39 76° NNE 00:46:52 18° E
Meteor 2-9 Rocket 4.5 00:37:10 10° S 00:43:01 80° W 00:48:53 10° N
NOSS 2-2 (D) 3.0 00:40:28 10° SSW 00:44:00 82° WNW 00:47:37 10° NNE
CZ-2C R/B 3.0 00:39:42 10° SSE 00:44:48 79° ENE 00:50:14 10° N
Cosmos 1844 Rocket 3.4 00:42:21 10° SSE 00:47:03 29° ESE 00:51:46 10° NE
Cosmos 1300 Rocket 4.0 00:43:48 10° SSE 00:47:50 37° E 00:51:54 10° NNE
Ariane Rocket 3.8 00:50:37 19° ESE 00:53:20 30° ENE 00:57:43 10° N
YAOGAN 1 3.3 00:49:27 10° S 00:53:40 55° W 00:57:55 10° NNW
USA 186 3.0 00:54:52 23° ENE 00:54:52 23° ENE 00:57:07 10° NNE
Exosat Rocket 4.4 00:54:01 10° SSE 00:59:22 30° ESE 01:03:52 10° NE
Cosmos 1943 3.1 00:55:14 10° NNW 01:00:55 82° ENE 01:06:35 10° SSE
Cosmos 1464 Rocket 3.9 00:55:16 10° S 01:01:17 64° E 01:07:22 10° NNE
Okean 2 4.3 00:57:50 10° NNW 01:01:54 52° W 01:05:55 10° S
Cosmos 2298 Rocket 4.1 00:57:10 10° S 01:02:18 51° ESE 01:07:27 10° NNE
Meteor 1-12 Rocket 4.3 00:57:26 10° S 01:03:19 67° E 01:09:08 10° NNE
Cosmos 1536 Rocket 4.4 01:06:06 10° NNE 01:09:59 30° ENE 01:09:59 30° ENE
CZ-4 R/B 3.7 01:07:53 10° SSW 01:11:27 26° W 01:15:01 10° NW
CSL-04 Rocket 4.3 01:11:16 10° S 01:16:31 57° WSW 01:21:54 10° NNW
Cosmos 2151 Rocket 3.5 01:12:38 10° S 01:16:59 60° E 01:21:23 10° NNE
Cosmos 1867 3.8 01:14:18 10° NNW 01:19:38 52° ENE 01:21:23 37° ESE
Cosmos 1603 4.3 01:15:04 10° NNW 01:20:35 56° WSW 01:26:02 10° S
CZ-2C R/B 0.6 01:18:29 10° W 01:22:01 74° S 01:22:04 74° SSE
Cosmos 1025 Rocket 3.0 01:18:40 10° N 01:22:59 58° E 01:23:50 48° SE
USA 102 4.3 01:22:50 47° S 01:24:15 75° WSW 01:30:17 10° NNW
Cosmos 2150 Rocket 4.0 01:26:57 10° SSW 01:32:16 90° W 01:37:44 10° NNE
DMSP B5D2-2 3.9 01:27:57 10° NNE 01:33:15 77° ESE 01:38:31 10° S
BREEZE-M DEB (TANK) 3.8 01:36:08 10° NW 01:39:51 54° NE 01:42:24 38° E
Cosmos 1125 Rocket 3.4 01:37:09 10° S 01:42:25 73° ESE 01:47:43 10° NNE
SJ-6B 3.3 01:44:19 50° N 01:44:19 50° N 01:47:10 10° NNW
Cosmos 1707 3.8 01:41:34 10° NNW 01:45:13 44° W 01:46:33 31° SW
Resurs 01 Rocket 3.6 01:49:35 18° NNE 01:49:35 18° NNE 01:51:00 10° N
USA 234 3.4 01:45:40 10° NE 01:52:11 74° NW 01:58:43 10° SW
ISS -1.1 01:50:10 10° WNW 01:52:25 17° NNW 01:53:13 16° N
Cosmos 2034 Rocket 4.4 01:52:07 10° SSW 01:58:24 62° W 02:04:43 10° N
H-2A R/B 4.1 01:55:46 10° SSW 01:59:41 24° W 02:03:42 10° NW
Nadezhda 4 Rocket 3.9 01:54:49 10° N 02:00:56 79° W 02:03:09 42° S
NOSS 3-2 (C) 4.4 02:00:30 10° NNW 02:07:52 46° NE 02:08:32 45° ENE
CZ-2C R/B 4.0 02:07:54 10° N 02:13:03 40° WNW 02:18:13 10° SW
Cosmos 1048 Rocket 4.3 02:10:46 10° NNW 02:15:16 64° NNW 02:15:16 64° NNW
Cosmos 1844 4.3 02:14:00 10° SW 02:19:35 53° WNW 02:25:08 10° NNE
ATLAS 2AS CENTAUR R/B 3.0 02:21:55 10° SSW 02:33:18 38° NE 02:37:45 10° NNE
Cosmos 1844 Rocket 4.2 02:25:47 10° SW 02:30:46 33° WNW 02:35:48 10° N
Cosmos 1634 Rocket 4.3 02:32:53 60° NNW 02:32:53 60° NNW 02:37:55 10° N
CENTAUR R/B 3.2 02:39:30 10° NNW 02:47:17 71° NNE 02:47:17 71° NNE
ATLAS 3B R/B 4.2 02:47:54 10° NNW 02:51:46 25° NNE 02:51:46 25° NNE
USA 238 DEB 4.2 02:49:07 10° NW 02:55:26 63° WNW 02:55:26 63° WNW
USA 238 4.2 02:49:13 10° NW 02:55:31 63° WNW 02:55:31 63° WNW
Lacrosse 5 4.3 08:09:35 18° NE 08:09:35 18° NE 08:10:53 10° NE
USA 267 4.3 08:00:13 10° NE 08:04:18 40° NNE 08:04:18 40° NNE
ADEOS II 4.3 08:20:53 10° N 08:22:11 18° N 08:22:11 18° N
USA 234 4.5 08:32:41 10° E 08:38:32 37° NNE 08:44:25 10° NNW
IDEFIX/ARIANE 42P 3.8 08:33:27 10° NNE 08:36:52 39° NE 08:36:52 39° NE
ARIANE 5 R/B 4.0 08:40:41 10° NNE 08:43:09 29° NNE 08:43:09 29° NNE
SJ 16-02 4.4 08:57:48 10° NNE 09:00:12 14° ENE 09:02:35 10° E
H-2A R/B 3.9 08:58:34 10° SE 09:02:19 29° ENE 09:06:08 10° N
Cosmos 1812 4.3 09:12:51 32° E 09:12:51 32° E 09:16:18 10° NNE
ASTEX 1 4.1 09:10:47 10° N 09:14:18 46° N 09:14:18 46° N
BREEZE-M DEB (TANK) 3.8 09:13:55 49° SW 09:16:29 81° SSE 09:20:40 10° ENE
Cosmos 1697 Rocket 4.0 09:19:35 27° NNW 09:19:35 27° NNW 09:22:59 10° N
CZ-2C R/B 3.6 09:14:26 10° NNE 09:19:20 43° E 09:23:04 17° SSE
ERBS 4.4 09:21:44 27° ENE 09:21:44 27° ENE 09:23:27 10° NE
SL-4 R/B 3.7 09:19:51 29° SE 09:20:18 30° SE 09:24:23 10° ENE
COSMOS 2441 4.3 09:15:53 10° NNE 09:20:38 84° NNE 09:20:38 84° NNE
Cosmos 1980 Rocket 2.4 09:22:31 55° NW 09:22:31 55° NW 09:27:39 10° NNE
PAYLOAD A 4.4 09:20:27 10° NNE 09:25:03 55° E 09:26:52 34° SSE
Cosmos 1339 Rocket 4.5 09:22:54 31° S 09:26:09 84° E 09:32:25 10° N
Cosmos 2322 Rocket 3.7 09:22:47 10° SSE 09:27:47 33° ESE 09:32:50 10° NE
Landsat 5 4.1 09:23:44 10° SSE 09:28:10 61° ENE 09:32:37 10° N
SL-16 R/B 3.0 09:31:24 17° S 09:35:32 50° ESE 09:40:59 10° NNE
Cosmos 2263 Rocket 3.5 09:30:26 10° N 09:35:43 39° ENE 09:41:00 10° SE
Chandra Rocket (1) 4.4 09:31:38 32° WSW 09:38:29 49° SSW 09:44:35 10° SE
Meteor 1-14 Rocket 4.0 09:36:01 10° NNW 09:41:35 70° W 09:47:03 10° S
CZ-2C R/B 4.4 09:38:23 10° N 09:40:05 23° NNW 09:40:05 23° NNW
NOSS 3-3 (A) 3.8 09:45:00 46° WSW 09:46:32 62° NW 09:52:46 10° NNE
NOSS 3-3 (C) 3.8 09:45:10 46° WSW 09:46:40 62° NW 09:52:50 10° NNE
Lacrosse 5 3.6 09:48:47 17° NW 09:49:23 18° NNW 09:52:48 10° N
CSL-04 DEB 4.4 09:45:11 10° S 09:49:25 78° WSW 09:53:47 10° NNW
Cosmos 1238 Rocket 3.9 09:44:20 10° NNW 09:50:47 59° W 09:56:34 10° S
Meteor 2-6 Rocket 4.1 09:48:55 28° SSW 09:51:55 69° W 09:57:40 10° N
Cosmos 1707 Rocket 4.1 09:50:49 10° S 09:55:02 57° E 09:59:18 10° NNE
Cosmos 921 Rocket 3.1 09:55:09 49° WNW 09:55:10 49° WNW 09:59:14 10° N
IRIDIUM 104 4.3 09:51:33 10° N 09:56:48 87° E 10:02:01 10° S
Cosmos 44 4.2 09:58:36 27° NW 09:58:36 27° NW 10:02:29 10° N
Meteor 1-5 Rocket 4.1 09:53:37 10° N 09:58:58 88° E 10:04:23 10° S
Cosmos 2228 Rocket 3.6 10:01:20 37° WNW 10:01:20 37° WNW 10:05:17 10° N
IRIDIUM 114 4.2 10:00:43 10° N 10:05:56 76° W 10:11:08 10° S
Meteor 1-4 Rocket 2.5 10:09:30 44° WSW 10:10:12 53° W 10:13:37 10° N
USA 32 4.3 10:05:06 10° N 10:10:21 73° E 10:15:34 10° S
Cosmos 1934 Rocket 4.5 10:05:35 10° NNW 10:10:57 34° W 10:16:19 10° SSW
X-37B 3.0 10:10:31 13° NNW 10:12:08 17° N 10:14:20 10° NE
ADEOS 3.6 10:08:43 10° NNE 10:13:58 81° ESE 10:19:10 10° S
IRIDIUM 103 4.3 10:09:55 10° N 10:15:03 61° W 10:20:10 10° SSW
Cosmos 1536 3.8 10:13:01 10° N 10:17:00 51° E 10:20:57 10° SSE
IDEFIX/ARIANE 42P 4.2 10:14:37 10° NNW 10:17:41 16° WNW 10:17:41 16° WNW
Cosmos 1733 Rocket 4.5 10:14:41 10° N 10:18:48 40° E 10:22:52 10° SSE
DELTA 4 R/B 4.4 10:09:17 20° W 10:18:51 38° SSW 10:23:48 10° SE
ADEOS Rocket 3.2 10:12:16 10° SSE 10:19:24 86° WSW 10:25:49 10° NNW
Cosmos 1484 Rocket 3.1 10:16:34 10° NNE 10:20:33 71° E 10:24:32 10° S
USA 234 3.2 10:14:50 10° SSE 10:21:16 63° SW 10:27:44 10° NW
Cosmos 1869 Rocket 3.7 10:19:46 10° NNW 10:23:54 46° W 10:28:01 10° SSW
ALOS 2.5 10:19:38 10° NNE 10:24:18 75° ESE 10:28:57 10° S
Meteor 1-11 Rocket 3.7 10:20:13 10° N 10:26:00 84° W 10:31:38 10° S
Cosmos 1937 Rocket 4.4 10:22:23 10° N 10:27:24 51° ENE 10:32:23 10° SE
Cosmos 1153 Rocket 4.5 10:21:23 10° NNW 10:27:43 68° W 10:33:56 10° S
Cosmos 1862 Rocket 4.0 10:24:30 10° S 10:28:52 66° E 10:33:13 10° NNE
ERS-2 2.5 10:25:51 10° S 10:29:17 39° W 10:32:45 10° NNW
Cosmos 967 Rocket 4.5 10:24:05 10° SSW 10:30:32 78° WNW 10:36:59 10° NNE
Meteor 1-31 Rocket 2.8 10:27:34 10° NNE 10:31:24 79° ESE 10:35:14 10° S
FALCON 9 DEB 3.3 10:31:12 23° WSW 10:33:06 54° NW 10:36:28 10° NE
Cosmos 841 Rocket 3.6 10:28:39 10° SSW 10:33:50 83° ESE 10:39:06 10° NNE
Meteor 1-27 Rocket 3.9 10:28:24 10° SSW 10:34:15 62° W 10:40:08 10° N
H-2A R/B 3.3 10:35:01 10° SW 10:38:16 21° W 10:41:35 10° NW
SJ 16-02 1.6 10:34:49 10° NNW 10:38:59 44° WSW 10:43:09 10° S
Cosmos 1763 Rocket 4.1 10:39:22 10° SW 10:44:18 38° WNW 10:49:16 10° N
Cosmos 1000 Rocket 4.4 10:38:48 10° SSW 10:44:59 71° W 10:51:09 10° N
Cosmos 1570 Rocket 4.0 10:41:13 10° SSW 10:46:30 77° WNW 10:51:52 10° NNE
Cosmos 2360 Rocket 2.2 10:50:19 10° SSW 10:55:58 78° WNW 11:01:40 10° NNE
SJ-12 3.9 10:53:03 10° N 10:57:11 85° WNW 11:01:19 10° SSW
CZ-2C R/B 3.8 10:53:29 10° NNW 10:57:12 21° WNW 11:00:56 10° WSW
CZ-4B R/B 2.1 10:55:07 10° SSW 10:57:49 27° W 11:00:36 10° NW
SL-4 R/B 2.9 10:55:31 10° WSW 10:59:53 43° NW 11:04:28 10° NE
Meteor 2-20 4.4 10:54:48 10° SSW 11:00:54 68° W 11:07:00 10° N
COSMO-SKYMED 1 2.9 10:57:07 10° SSE 11:01:26 75° ENE 11:05:46 10° N
SL-8 R/B 4.0 10:58:08 10° NW 11:02:54 72° NE 11:07:39 10° ESE
Cosmos 1725 Rocket 4.3 10:58:03 10° N 11:04:14 73° E 11:10:22 10° SSE
Cosmos 1666 3.8 11:01:30 10° NW 11:04:34 23° W 11:07:36 10° SW
DEBRIS 3.5 11:05:05 10° WNW 11:08:08 73° SW 11:17:37 10° SE
Cosmos 1544 4.1 11:04:48 10° N 11:08:19 50° E 11:11:47 10° SSE
Cosmos 2100 Rocket 4.2 11:03:16 10° NNW 11:09:23 50° W 11:15:28 10° SSW
METEOR-M 4.4 11:04:17 10° N 11:09:25 49° WNW 11:14:32 10° SW
Cosmos 2322 Rocket 3.1 11:06:51 10° WSW 11:11:47 30° WNW 11:16:46 10° N
Cosmos 1802 Rocket 4.0 11:06:01 10° NNW 11:12:09 65° W 11:18:20 10° S
